Flag for USA

Past Weather in Munising, Michigan, USA — Yesterday and Last 2 Weeks

Now
50 °F

Cool.


Feels Like: 48 °F
Forecast: 57 / 49 °F
Wind: 6 mph from Southwest

Location: Munising - Munising Lakeshore
Current Time: Sep 29, 2020 at 4:58:27 am
Latest Report: Sep 29, 2020 at 3:56 am
Visibility: N/A
Pressure29.65 "Hg
Humidity: 86%
Dew Point: 46 °F
Location of MunisingLocation

Past Weather in Munising — Graph

°F

Munising Temperature Yesterday

Maximum temperature yesterday: 56 °F (at 12:56 am)
Minimum temperature yesterday: 51 °F (at 2:56 am)
Average temperature yesterday: 54 °F

High & Low Weather Summary for the Past Weeks

 TemperatureHumidityPressure
High80 °F (Sep 23, 2:56 pm)100% (Sep 25, 3:56 am)30.46 "Hg (Sep 25, 3:56 am)
Low32 °F (Sep 18, 4:56 am)41% (Sep 18, 3:56 pm)29.39 "Hg (Sep 27, 2:56 am)
Average57 °F76%30.02 "Hg
* Reported Sep 14 2:56 am — Sep 29 2:56 am, Munising. Weather by CustomWeather, © 2020

Note: Actual official high and low records may vary slightly from our data, if they occured in-between our weather recording intervals... More about our weather records

Munising Weather History for the Previous 24 Hours

Scroll right to see more
 ConditionsComfort  
Time TempWeatherWind HumidityBarometerVisibility
2:56 am
Tue, Sep 29
50 °FCool.8 mph86%29.66 "HgN/A
1:56 am50 °FCool.5 mph86%29.66 "HgN/A
12:56 am51 °FCool.5 mph86%29.67 "HgN/A
11:56 pm
Mon, Sep 28
52 °FCool.10 mph86%29.67 "HgN/A
10:56 pm53 °FCool.6 mph86%29.67 "HgN/A
9:56 pm55 °FCool.12 mph77%29.67 "HgN/A
8:56 pm54 °FCool.10 mph83%29.67 "HgN/A
7:56 pm54 °FCool.12 mph86%29.67 "HgN/A
6:56 pm54 °FCool.10 mph86%29.67 "HgN/A
5:56 pm54 °FCool.10 mph86%29.67 "HgN/A
4:56 pm54 °FCool.12 mph90%29.67 "HgN/A
3:56 pm54 °FCool.14 mph90%29.67 "HgN/A
2:56 pm54 °FCool.10 mph90%29.67 "HgN/A
1:56 pm54 °FCool.9 mph93%29.68 "HgN/A
12:56 pm54 °FCool.9 mph93%29.68 "HgN/A
11:56 am56 °FCool.12 mph90%29.66 "HgN/A
10:56 am56 °FCool.No wind84%29.66 "HgN/A
9:56 am55 °FCool.No wind87%29.65 "HgN/A
8:56 am52 °FCool.3 mph93%29.67 "HgN/A
7:56 am51 °FCool.3 mph92%29.67 "HgN/A
6:56 am51 °FCool.5 mph92%29.67 "HgN/A
5:56 am52 °FCool.3 mph89%29.66 "HgN/A
4:56 am52 °FCool.No wind89%29.65 "HgN/A
Weather by CustomWeather, © 2020

See weather overview